Location: ?????????
(38.5999°N, 22.7695°E)
Time: 10:15:29
(UTC+00:00)

Cosmos 1975 Rocket - Pass Details

Date: 23 May 2024
Orbit: 601 x 629 km, 82.5° (Epoch: 18 June)

Event Time Altitude Azimuth Distance (km) Brightness Sun altitude
Rises 02:12:39 0° 176° (S) 2,840 6.1 -10.4°
Reaches altitude 10° 02:14:53 10° 172° (S) 1,939 5.3 -10.1°
Maximum altitude 02:19:05 57° 94° (E) 713 3.7 -9.4°
Drops below altitude 10° 02:23:18 10° 16° (NNE) 1,951 6.5 -8.8°
Sets 02:25:33 0° 12° (NNE) 2,859 7.3 -8.4°
